Regional Weather Roundup
Issued by NWS

Home | Current Version | Previous Version | Graphics & Text | Print | Product List | Glossary On
Versions: 1 2 3 4 5 6 7 8 9 10 11 12 13 14 15 16 17 18 19 20 21 22 23 24 25 26 27
000
ASUS45 KCYS 211410
RWRWY

WYOMING REGIONAL WEATHER ROUNDUP
NATIONAL WEATHER SERVICE CHEYENNE WY
800 AM MDT SAT OCT 21 2017

NOTE:  "FAIR" INDICATES FEW OR NO CLOUDS BELOW 12,000 FEET
WITH NO SIGNIFICANT WEATHER AND/OR OBSTRUCTIONS TO VISIBILITY.

WYZ001-211500-
YELLOWSTONE NATIONAL PARK

CITY           SKY/WX    TMP DP  RH WIND       PRES   REMARKS
LK YELLOWSTONE   N/A     24  20  84 VRB3      29.99S
W YELLOWSTONE  NOT AVBL

$$
WYZ002>013-054>058-071-098>099-211500-
NORTHERN WYOMING

CITY           SKY/WX    TMP DP  RH WIND       PRES   REMARKS
JACKSON        CLOUDY    29  23  78 SW9       30.03R WCI  20
CODY           FAIR      37  16  42 SW6       29.91R WCI  32
GREYBULL       FAIR      29  22  75 S3        29.89R
WORLAND        FAIR      23  20  88 S3        29.89R
SHERIDAN       FAIR      37  17  44 NW9       29.84R WCI  30
BUFFALO        FAIR      34  10  37 W6        29.84R WCI  29
GILLETTE       FAIR      39  17  41 NW13      29.81R WCI  31
HULETT         FAIR      41  23  48 W10G16    29.80R
NEWCASTLE      FAIR      37  23  56 NW16      29.80R WCI  28

$$
WYZ014>020-022>026-101>103-211500-
CENTRAL WYOMING

CITY           SKY/WX    TMP DP  RH WIND       PRES   REMARKS
BIG PINEY      FAIR      20  17  88 CALM      30.04R
PINEDALE       CLOUDY    23  21  93 W7        30.05R WCI  15
DUBOIS         CLOUDY    27  21  80 N8        29.96S WCI  18
LANDER         FAIR      30  17  58 CALM      29.91R
RIVERTON       FAIR      34  16  47 NW21      29.92R WCI  22
CASPER         FAIR      29  16  58 SW7       29.89R WCI  22
DOUGLAS        FAIR      38  17  42 W24G32    29.86R WCI  27

$$
WYZ021-027>030-104>119-211500-
SOUTHERN WYOMING

CITY           SKY/WX    TMP DP  RH WIND       PRES   REMARKS
EVANSTON       FAIR      24  20  84 SW12      30.09R WCI  13
FORT BRIDGER   FAIR      26  20  79 SW14      30.11R WCI  14
ROCK SPRINGS   FAIR      25  17  72 SW15      30.06R WCI  13
DIXON          FAIR      16  13  88 NE6       30.10R WCI   8
RAWLINS        FAIR      26  18  71 W23G31    29.96R WCI  11
SARATOGA       FAIR      27  21  80 W14G20    29.99R WCI  15
LARAMIE        FAIR      27  18  69 W24       29.93R WCI  12
CHEYENNE       FAIR      35  17  47 W22G28    29.93R WCI  23
TORRINGTON     FAIR      42  20  41 W12       29.86R
PINE BLUFFS    FAIR      39  19  45 MISG      29.88R

$$




USA.gov is the U.S. government's official web portal to all federal, state and local government web resources and services.